Weather in Permyaki

Russia / Kemerovo Oblast     54°27′54″N   86°54′50″E
temp.,
°C
wind,
m/s
gust,
m/s
humid.,
%
clouds,
%
prec.,
mm/h
press.,
hPa
HPBL,
m
21 june, mon
mon2101:00+6sse399896 0.1 1013282
04:00+6se3109838 0.0 1013328
07:00+7se38942 0.0 1011328
10:00+14sse575718 0.0 10091026
13:00+18s574483 0.0 10081857
16:00+13ssw51075100 0.1 10091000
19:00+13ssw3777100 0.1 1009638
22:00+10s2292100 0.0 100917
22 june, tue
tue2201:00+8e1194100 0.0 100811
04:00+8ene2293100 0.0 100629
07:00+10e0093100 0.3 100613
10:00+10s1197100 1.2 100764
13:00+11s379623 3.2 1008536
16:00+17ssw585744 0.3 10091672
19:00+15ssw486414 0.4 10091220
22:00+11s398014 0.1 1010242
23 june, wed
wed2301:00+9s51188100 0.1 1011525
04:00+9s61190100 0.3 1011747
07:00+9sw5998100 1.4 1012650
10:00+9wsw5897100 1.1 1013708
13:00+12wsw2479100 1.9 1014977
16:00+14ssw357196 0.7 10141164
19:00+13s358945 2.1 1013570
22:00+9ese2293100 0.5 101332
24 june, thu
thu2401:00+8ese2295100 0.5 101132
04:00+7e2695100 0.0 1008113
07:00+9e2793100 0.0 1006183
10:00+14s4969100 0.0 1005813
13:00+11e2897100 1.3 1005378
16:00+14sw4884100 0.7 10061268
19:00+14ssw5106997 1.0 10071429
22:00+11sse41180100 0.0 1009412
25 june, fri
fri2501:00+10sse512845 0.1 1009579
04:00+10sse61180100 0.0 1008923
07:00+9s51287100 0.1 1009744
10:00+9s61291100 0.3 1010818
13:00+10s51093100 0.6 1010793
16:00+14ssw5776100 0.4 10101154
19:00+12ssw589211 1.9 1010768
22:00+9ssw26965 0.4 1012123